Location: Chateh
(58.6667°N, 118.6000°W)
Time: 09:02:35
(UTC+00:00)

O/OREOS (USA 219) - Pass Details

Date: 14 December 2023
Orbit: 621 x 646 km, 72.0° (Epoch: 22 May)

Event Time Altitude Azimuth Distance (km) Brightness Sun altitude
Exits shadow 12:57:13 29° 14° (NNE) 1,150 ? -26.3°
Maximum altitude 12:58:03 32° 36° (NE) 1,094 ? -26.2°
Drops below altitude 10° 13:02:07 10° 100° (E) 2,017 ? -25.7°
Sets 13:04:36 0° 111° (ESE) 2,927 ? -25.4°
